This is the latest recevied weather packets stored in our database for station/object KB3KAV. If no packets are shown the sender has not sent any weather packets the latest 10 day(s).
| Time | Temp. | Humidity | Pressure | Rain* | Wind** | Luminosity | Snow |
|---|---|---|---|---|---|---|---|
| 1777573692 | 13.33° C | 62% | 1036.8 hPa | 0 mm | - | 188 W/m² | - |
| 1777573091 | 13.33° C | 61% | 1037 hPa | 0 mm | - | 295 W/m² | - |
| 1777572488 | 13.33° C | 65% | 1036.8 hPa | 0 mm | - | 307 W/m² | - |
| 1777571885 | 12.78° C | 63% | 1036.9 hPa | 0 mm | - | 260 W/m² | - |
| 1777571284 | 13.33° C | 63% | 1036.7 hPa | 0 mm | - | 206 W/m² | - |
| 1777570682 | 12.78° C | 65% | 1036.8 hPa | 0 mm | - | 273 W/m² | - |
| 1777570080 | 12.78° C | 63% | 1037.1 hPa | 0 mm | - | 178 W/m² | - |
| 1777569477 | 12.78° C | 66% | 1037.2 hPa | 0 mm | - | 224 W/m² | - |
| 1777568877 | 12.78° C | 67% | 1037.1 hPa | 0 mm | - | 236 W/m² | - |
| 1777568271 | 12.78° C | 67% | 1037.2 hPa | 0 mm | - | 262 W/m² | - |
| 1777567670 | 12.78° C | 67% | 1037.1 hPa | 0 mm | - | 391 W/m² | - |
| 1777567065 | 11.67° C | 68% | 1037.5 hPa | 0 mm | - | 274 W/m² | - |
| 1777566461 | 11.67° C | 66% | 1037.2 hPa | 0 mm | - | 121 W/m² | - |
| 1777565859 | 12.22° C | 68% | 1037.4 hPa | 0 mm | - | 179 W/m² | - |
| 1777565258 | 12.22° C | 68% | 1037.4 hPa | 0 mm | - | 372 W/m² | - |
| 1777564655 | 12.22° C | 71% | 1037.5 hPa | 0 mm | - | 470 W/m² | - |
| 1777564053 | 11.67° C | 73% | 1037.6 hPa | 0 mm | - | 314 W/m² | - |
| 1777563452 | 11.11° C | 75% | 1037.8 hPa | 0 mm | - | 294 W/m² | - |
| 1777562847 | 11.67° C | 77% | 1037.7 hPa | 0 mm | - | 210 W/m² | - |
| 1777562243 | 11.11° C | 77% | 1037.7 hPa | 0 mm | - | 160 W/m² | - |
| 1777561637 | 11.67° C | 77% | 1037.7 hPa | 0 mm | - | 206 W/m² | - |
| 1777561034 | 11.11° C | 78% | 1037.6 hPa | 0 mm | - | 176 W/m² | - |
| 1777560432 | 11.11° C | 79% | 1037.4 hPa | 0 mm | - | 191 W/m² | - |
| 1777559826 | 10.56° C | 82% | 1037.3 hPa | 0 mm | - | 177 W/m² | - |
| 1777559225 | 11.11° C | 81% | 1037.1 hPa | 0 mm | - | 140 W/m² | - |
* Rain latest hour (hover to see other rain measurements)
** Current wind speed in m/s (hover to see current wind gust speed)